LAPAN-TUBSAT

Satellite information

Favourite Embed

Satellite Type and Status

PAYLOADIN ORBIT

Key statistics

Satellite LAPAN-TUBSAT at a glance.

Uptime

6691

Days in orbit

Revolutions

≈ 14.9

Per day

Orbit

SSO

Sun Synchronous Orbit

Inclination

98.1

Latest

Satellite identification and parameters

Extended collection of information and parameters for LAPAN-TUBSAT.

Object identification

Identified? True

Debris? False

Object name: LAPAN-TUBSAT

International designator: 2007-001A

Object number (NORAD): 29709

Object ID (CCSDS): 29709

Country: INDONESIA (INDO)

Current information (Y/N): Y

RCS size: MEDIUM

Orbital parameters

Period: 96.951 minutes

Inclination: 98.1081 deg

SMA: 6990.834 km

Apoapsis: 622.306 km

Periapsis: 603.092 km

RAAN: 111.798 deg

Eccentricy: 0.0013742

Argument of periapsis: 73.4629 deg

Mean anomaly: 286.8093 deg

Mean motion: 14.8528327 rev/day

Mean motion (dot): 0.00001025 rev/day2

B* drag term: 0.00012577 1/REarth

Two-line elements (TLE)

Creation date: May 6, 2025, 3:54 a.m.

Reference frame: TEME

Reference center: EARTH

Epoch: May 5, 2025, 9:43 p.m. UTC

TLE line 0: 0 LAPAN-TUBSAT

TLE line 1: 1 29709U 07001A 25125.90502483 .00001025 00000-0 12577-3 0 9994

TLE line 2: 2 29709 98.1081 111.7980 0013742 73.4629 286.8093 14.85283270990689

Live tracking on map

Real-time ground track for satellite LAPAN-TUBSAT.

In-orbit conjunctions

There are no conjunctions computed for LAPAN-TUBSAT, at the moment. Check back to stay up to date, as we update our databases every day.

Go to all conjunctions

Associated space launch

Indian Earth observation and re-entry technology satellites

LAPAN-TUBSAT was lifted into orbit during the mission ‘PSLV | Cartosat 2 & SRE 1’, on board a PSLV space rocket.

The launch took place on Jan. 10, 2007, 3:54 a.m. from Satish Dhawan Space Centre First Launch Pad.

For more information about the launch, click the button.

Launch to space PSLV | Cartosat 2 & SRE 1
PSLV | Cartosat 2 & SRE 1

Agency: N/A

Status: Launch Successful

Launch date: Jan. 10, 2007, 3:54 a.m. UTC

Rocket: PSLV

Launch pad: Satish Dhawan Space Centre First Launch Pad

Location: Satish Dhawan Space Centre, India

...

Latest news about this satellite

There are no fresh news available about this satellite. Check back as we update our databases every day.


Newsletter sign-up

Weekly statistics, charts and insights to help you stay on top of the space industry.